星链-5988 (STARLINK-5988 )

导读 | 豆包AI

STARLINK-5988是美国星链项目中的一颗卫星,于2023年4月27日发射入轨,属于SpaceX打造的低轨互联网卫星星座组网卫星,旨在为全球提供高速低延迟卫星互联网服务。星链通过大量低轨卫星组网,可覆盖偏远地区,也在通信服务、导航增强等领域拓展应用场景。

Basic Information
目录编号:
56320
目录名称:
STARLINK-5988
国际标识:
2023-058D
轨道中心:
EARTH
卫星名称:
星链-5988
卫星全名:
星链-5988 (STARLINK-5988 )
卫星状态:
在轨 (已飞行1099 天)
发射日期:
2023-04-27 UTC
国别 :
美国 (US)
星等 :
--
Orbit Information
数据来源 国际轨道数据 AOE轨道数据
星历时间 2026-04-30T08:26:17+0800
10小时前
查看轨道信息
2026-04-28T15:00:00+0800
2天前
查看轨道信息
半长轴 6927.662km 6927.686km
偏心率 0.0002244 0.0002248
轨道倾角 97.553° 97.559°
近地点辐角 107.585° 156.844°
升交点赤经 120.611° 118.914°
平近点角 252.563° 210.536°
近地点 547.97km 547.991km
远地点 551.08km 551.107km
周期 95.640分钟 95.641分钟
每日圈数 15.056456 15.056377
Detailed Information
固有亮度:
5
最大亮度:
2.5
卫星平台:
Starlink v1.5
覆盖范围:
全球
运营商:
太空探索技术公司
运营商所在国:
美国
制造商(研发单位):
太空探索技术公司
制造商所在国:
美国
使用方式:
暂无
Satellite Introduction
星链(Starlink)计划是由太空探索技术公司(SpaceX)提出的一个巨型低轨卫星互联网星座项目,计划在2019年至2024年间在太空搭建由约1.2万颗卫星组成的“星链”网络,其中1584颗将部署在地球上空550千米处的近地轨道,并从2020年开始工作。该卫星仍在工作。
2D Orbit Map
3D Orbit Map
Orbit Altitude Analysis Chart
Orbit Inclination Analysis Chart
Orbit Comprehensive Analysis Chart
View Comprehensive Chart